CZ-6A DEB, 54992

Orbit data source: Space-Track

CZ-6A DEB, 54992 is space debris in SSO originally from a launch on Fri, 11 Nov 2022 UTC launched from the Taiyaun Space Center, China (TSC). Debris objects in space refer to the collection of defunct objects orbiting the Earth. Examples of debris include non-operational satellites, rocket bodies, and fragments generated from explosions, collisions, or faulty payload assembly.

Loading next visibility...
Identifier
54992, 2022-151UH
Orbit
SSO
Country
Flag of CNCN / PRC
Related business
Manufacturer
SAST
Mission
Spacecraft
Bus & Motor
Unknown
Mass
Unknown
Launch date (UTC)
2022-11-11 (4 years ago)
Launch vehicle
Unknown
Launch site
Taiyaun Space Center, China (TSC)
Object type
Payload
Rocket body
Debris
Shape & HBR
Unknown shape, 0.1 m
Radar Cross Section
Small (<0.1 m²)

Expand to show TLE details & history
Last TLE update: 1 day ago

TLE from 1 day ago
0 CZ-6A DEB
1 54992U 22151UH  26235.48023587  .00002327  00000-0  98743-3 0  9993
2 54992  98.7841 251.5581 0026572  55.6626 304.7063 14.26136676194578
Epoch: 2026-08-23T11:31Z
TLE epoch observation values (Epoch: 2026-08-23T11:31:32.379Z)
Latitude
0.00004°
Longitude
106.8975°
Altitude
796.759 km
Speed
7.461 km/s
True Right ascension
16h 46m 13s
True Declination
0° 00' 00"
Sunlit
Object was in daylight at epoch
Visualization orbit readout
Latitude
Unknown
Longitude
Unknown
Altitude
Unknown
Speed
Unknown
Apparent Right ascension
Unknown
Apparent Declination
Unknown
Sunlit
N/A
Visualization observer readout
Local Sidereal Time
05:20:17
Azimuth
Unknown
Elevation
Unknown
Doppler factor
Unknown
Orbital elements
Apogee altitude
820.906 km
Perigee altitude
782.749 km
Semi-major axis
7,179.964 km
Eccentricity
0.00266
Inclination
98.7841°
RAAN
251.5581°
Arg. of periapsis
55.6626°
True anomaly
304.45551°
Mean anomaly
304.7063°
Eccentric anomaly
304.58095°
Mean motion
3.56747 °/min
Orbital period
100.91 mins
BSTAR
0.00098743
Loading maneuver chart data...
Computing Atmospheric mass density...
Loading historical data...
Loading historical data...
Loading historical data...
Loading historical data...
Loading historical data...
Loading historical data...
Loading historical data...

Documentation

Showing up to 5 results
|